sat.trackr.live / text

‹ back to catalog

ONEWEB-0649

NORAD 55812 · 2023-029S

PAYLOAD ACTIVE UNKNOWN

§ Identity

Operator
Country
UK
Launch date
2023-03-09
Launch site
AFETR
Launch vehicle
Mass (kg)
RCS (m²)

Purposes: comms

External: N2YO · Heavens-Above · Gunter

§ Orbital elements

Epoch: 2026-05-25T04:27:32.193792Z

Period
109.11 min
Inclination
87.9151°
Eccentricity
0.0001637
Mean motion
13.19726113 rev/d
Perigee alt
1,184.5 km
Apogee alt
1,187.0 km
Semi-major
7,563.9 km
B*
2.1955e-4
RAAN
309.5591°
Arg perigee
86.5088°
Mean anomaly
273.6231°
Rev number
15,589

§ Raw data

ONEWEB-06491 55812U 23029S   26145.18578928  .00000101  00000+0  21955-3 0  99992 55812  87.9151 309.5591 0001637  86.5088 273.6231 13.19726113155894

JSON: /api/v1/satellites/55812 · /tle

For live sub-satellite position, see the globe view (requires WebGL).

§ Visibility from observer

Set your observer location to see the next 7 days of passes ≥ 10°. The values pass through the URL so the page stays shareable.

No JS? Fill the form by hand. The geolocation button needs JavaScript.